GW6324 Weather Reports


time (UTC)temp
F
wind
direction
speed
knots
gust
knots
rain 1hr
in
rain 24hr
in
rain mn
in
humidity
%
barometer
mb
20260902231541 93 276 1.7 3.5 0.00 0.00 0.00 56 1015.9
20260902230038 94 232 1.7 3.5 0.00 0.00 0.00 54 1016.0
20260902224538 95 253 1.7 5.2 0.00 0.00 0.00 54 1016.0
20260902223040 95 256 1.7 4.3 0.00 0.00 0.00 55 1016.0
20260902221540 95 252 1.7 6.1 0.00 0.00 0.00 52 1016.2
20260902220041 96 229 2.6 7.0 0.00 0.00 0.00 51 1016.2
20260902214541 96 263 2.6 7.0 0.00 0.00 0.00 50 1016.1
20260902213038 97 286 1.7 5.2 0.00 0.00 0.00 48 1016.2
20260902211540 97 267 2.6 7.0 0.00 0.00 0.00 47 1016.3
20260902210039 98 239 1.7 7.0 0.00 0.00 0.00 48 1016.2
20260902204540 96 131 1.7 5.2 0.00 0.00 0.00 49 1016.4
20260902203039 98 254 2.6 8.7 0.00 0.00 0.00 49 1016.5
20260902201550 98 238 2.6 6.1 0.00 0.00 0.00 48 1016.7
20260902200041 97 254 1.7 6.1 0.00 0.00 0.00 49 1016.7
20260902194537 97 181 1.7 7.8 0.00 0.00 0.00 48 1017.0
20260902193040 96 304 1.7 6.1 0.00 0.00 0.00 49 1017.1
20260902191539 98 267 3.5 6.1 0.00 0.00 0.00 47 1017.3
20260902190047 97 250 2.6 7.8 0.00 0.00 0.00 46 1017.4
20260902184542 96 227 3.5 7.0 0.00 0.00 0.00 46 1017.4
20260902183042 95 249 2.6 6.1 0.00 0.00 0.00 49 1017.6
20260902181550 95 295 1.7 8.7 0.00 0.00 0.00 49 1017.7
20260902180043 96 323 3.5 7.8 0.00 0.00 0.00 48 1017.8
20260902174542 95 269 3.5 7.8 0.00 0.00 0.00 52 1018.0
20260902173050 95 283 3.5 9.6 0.00 0.00 0.00 52 1018.1
20260902171602 94 173 2.6 7.8 0.00 0.00 0.00 55 1018.3
20260902170042 92 265 2.6 6.1 0.00 0.00 0.00 58 1018.3
20260902164538 91 229 2.6 7.0 0.00 0.00 0.00 62 1018.3
20260902163045 90 253 1.7 9.6 0.00 0.00 0.00 62 1018.5
20260902161543 89 271 1.7 4.3 0.00 0.00 0.00 66 1018.5
20260902160047 88 238 2.6 6.1 0.00 0.00 0.00 66 1018.7
20260902154555 87 283 2.6 7.8 0.00 0.00 0.00 66 1018.8
20260902153044 86 294 1.7 4.3 0.00 0.00 0.00 72 1018.9
20260902151543 85 238 0.9 4.3 0.00 0.00 0.00 72 1018.9
20260902150044 84 242 0.9 5.2 0.00 0.00 0.00 74 1018.9
20260902144546 83 243 1.7 4.3 0.00 0.00 0.00 76 1018.8
20260902143047 82 252 1.7 4.3 0.00 0.00 0.00 77 1018.8
20260902141546 81 256 1.7 6.1 0.00 0.00 0.00 78 1018.9
20260902140043 80 258 1.7 5.2 0.00 0.00 0.00 79 1018.8
20260902134550 79 304 1.7 5.2 0.00 0.00 0.00 79 1018.8
20260902133052 79 248 1.7 5.2 0.00 0.00 0.00 80 1018.9
20260902131548 78 287 1.7 5.2 0.00 0.00 0.00 81 1018.8
20260902130038 78 251 1.7 6.1 0.00 0.00 0.00 81 1018.8
20260902124538 77 259 1.7 4.3 0.00 0.00 0.00 81 1018.8
20260902123037 77 261 0.9 3.5 0.00 0.00 0.00 82 1018.6
20260902121537 76 0 0.0 1.7 0.00 0.00 0.00 85 1018.4
20260902120044 75 258 0.0 1.7 0.00 0.00 0.00 86 1018.3
20260902114550 74 258 0.0 1.7 0.00 0.00 0.00 86 1018.2
20260902113038 74 0 0.0 1.7 0.00 0.00 0.00 85 1018.1
20260902111544 75 0 0.0 0.9 0.00 0.00 0.00 83 1018.0
20260902110056 75 0 0.0 1.7 0.00 0.00 0.00 83 1017.9
20260902104537 75 0 0.0 1.7 0.00 0.00 0.00 83 1018.0
20260902103040 75 242 0.9 1.7 0.00 0.00 0.00 83 1017.8
20260902101540 75 240 0.0 1.7 0.00 0.00 0.00 84 1017.9
20260902100039 76 0 0.0 0.0 0.00 0.00 0.00 82 1017.8
20260902094657 76 0 0.0 1.7 0.00 0.00 0.00 82 1017.8
20260902091535 76 244 0.9 2.6 0.00 0.00 0.00 81 1017.7
20260902090039 77 248 0.9 2.6 0.00 0.00 0.00 81 1017.5
20260902084542 77 254 0.9 3.5 0.00 0.00 0.00 80 1017.4
20260902083039 77 253 0.9 3.5 0.00 0.00 0.00 80 1017.2
20260902081541 77 227 1.7 3.5 0.00 0.00 0.00 81 1017.1
20260902080044 77 240 0.0 1.7 0.00 0.00 0.00 81 1017.0
20260902074538 77 249 0.9 2.6 0.00 0.00 0.00 81 1016.8
20260902073036 77 238 0.9 3.5 0.00 0.00 0.00 82 1016.9
20260902071538 77 233 0.9 2.6 0.00 0.00 0.00 81 1016.9
20260902070038 78 244 0.9 1.7 0.00 0.00 0.00 81 1017.0
20260902064540 77 242 0.9 1.7 0.00 0.00 0.00 81 1016.9
20260902063038 77 257 0.0 1.7 0.00 0.00 0.00 81 1017.0
20260902061604 78 257 0.0 1.7 0.00 0.00 0.00 80 1017.1
20260902060038 78 0 0.0 1.7 0.00 0.00 0.00 79 1017.1
20260902054549 79 0 0.0 1.7 0.00 0.00 0.00 78 1017.1
20260902053037 79 250 0.9 2.6 0.00 0.00 0.00 78 1017.1
20260902051541 79 246 0.0 2.6 0.00 0.00 0.00 78 1017.1
20260902050038 78 238 0.9 1.7 0.00 0.00 0.00 79 1017.2
20260902044540 78 0 0.0 1.7 0.00 0.00 0.00 78 1017.2
20260902043047 79 0 0.0 1.7 0.00 0.00 0.00 78 1017.1
20260902041542 79 0 0.0 1.7 0.00 0.00 0.00 77 1017.1
20260902040041 79 243 0.0 1.7 0.00 0.00 0.00 76 1017.1
20260902034539 80 246 0.0 1.7 0.00 0.00 0.00 76 1017.1
20260902033049 80 233 0.0 1.7 0.00 0.00 0.00 76 1017.1
20260902031540 80 0 0.0 1.7 0.00 0.00 0.00 75 1017.1
20260902030045 80 237 0.9 1.7 0.00 0.00 0.00 75 1017.2
20260902024539 81 238 0.0 1.7 0.00 0.00 0.00 74 1017.2
20260902023041 81 244 0.0 1.7 0.00 0.00 0.00 73 1017.2
20260902021539 82 0 0.0 1.7 0.00 0.00 0.00 73 1017.1
20260902020042 82 0 0.0 1.7 0.00 0.00 0.00 72 1017.1
20260902014537 82 0 0.0 1.7 0.00 0.00 0.00 72 1017.2
20260902013041 82 0 0.0 1.7 0.00 0.00 0.00 72 1016.9
20260902011539 83 246 0.0 1.7 0.00 0.00 0.00 71 1016.7
20260902010046 84 246 0.0 1.7 0.00 0.00 0.00 70 1016.6
20260902004539 84 246 0.9 0.9 0.00 0.00 0.00 69 1016.5
20260902003038 86 0 0.0 1.7 0.00 0.00 0.00 67 1016.6
20260902001540 88 0 0.0 1.7 0.00 0.00 0.00 63 1016.7
20260902000040 89 242 0.0 2.6 0.00 0.00 0.00 61 1016.6
20260901234537 90 235 0.0 1.7 0.00 0.00 0.00 59 1016.7
20260901233042 92 248 0.0 1.7 0.00 0.00 0.00 57 1016.8